Private Wetterstation Wechselburg
Wetterdaten: Dienstag, 29.05.2018
Datum Zeit Temp. +2m Bodentemp. Temp.+5cm Temp. Wind Windchill X Diff Temp. Feuchte +2m Feuchte +5cm Luftdruck Regen Wind Richtung Richtung Sonnenschein Taupunkt Windchill Windben
29.05.2018 00:00 20,4 C 19,7 C 19,7 C 20,1 C 19,5 C 0,0 C 78 % 82 % 1016,8 hPa 0,0 l/m 0,0 km/h (0 Bft) N-NO 22 0 min 16,4 C 19,5 C 0,0 km/h (0 Bft)
29.05.2018 00:05 20,4 C 19,7 C 19,7 C 20,1 C 19,4 C 0,0 C 78 % 83 % 1016,8 hPa 0,0 l/m 0,0 km/h (0 Bft) N-NO 22 0 min 16,4 C 19,4 C 0,0 km/h (0 Bft)
29.05.2018 00:10 20,2 C 19,7 C 19,7 C 19,8 C 19,1 C 0,0 C 78 % 83 % 1016,8 hPa 0,0 l/m 0,0 km/h (0 Bft) N-NO 22 0 min 16,2 C 19,1 C 0,0 km/h (0 Bft)
29.05.2018 00:15 20,1 C 19,7 C 19,5 C 19,7 C 18,9 C 0,0 C 78 % 83 % 1017,0 hPa 0,0 l/m 0,0 km/h (0 Bft) N-NO 22 0 min 16,1 C 18,9 C 0,0 km/h (0 Bft)
29.05.2018 00:20 20,0 C 19,6 C 19,4 C 19,5 C 18,5 C 0,0 C 78 % 83 % 1017,0 hPa 0,0 l/m 0,0 km/h (0 Bft) S-SW 202 0 min 16,0 C 18,5 C 0,0 km/h (0 Bft)
29.05.2018 00:25 19,8 C 19,6 C 19,2 C 19,3 C 18,3 C 0,0 C 78 % 83 % 1017,0 hPa 0,0 l/m 0,0 km/h (0 Bft) S-SW 202 0 min 15,8 C 18,3 C 0,0 km/h (0 Bft)
29.05.2018 00:30 19,6 C 19,7 C 19,1 C 19,1 C 18,0 C 0,0 C 79 % 84 % 1017,0 hPa 0,0 l/m 0,0 km/h (0 Bft) SW 225 0 min 15,9 C 18,0 C 0,0 km/h (0 Bft)
29.05.2018 00:35 19,5 C 19,6 C 19,1 C 18,9 C 17,8 C 0,0 C 79 % 84 % 1016,6 hPa 0,0 l/m 0,0 km/h (0 Bft) W-SW 247 0 min 15,8 C 17,8 C 0,0 km/h (0 Bft)
29.05.2018 00:40 19,4 C 19,6 C 18,8 C 18,8 C 17,6 C 0,0 C 79 % 84 % 1016,6 hPa 0,0 l/m 0,0 km/h (0 Bft) NW 315 0 min 15,7 C 17,6 C 0,0 km/h (0 Bft)
29.05.2018 00:45 19,2 C 19,7 C 18,8 C 18,6 C 17,5 C 0,0 C 80 % 84 % 1016,6 hPa 0,0 l/m 0,0 km/h (0 Bft) NO 45 0 min 15,7 C 17,5 C 0,0 km/h (0 Bft)
29.05.2018 00:50 19,1 C 19,7 C 18,7 C 18,5 C 17,4 C 0,0 C 80 % 85 % 1016,6 hPa 0,0 l/m 0,0 km/h (0 Bft) NW 315 0 min 15,6 C 17,4 C 0,0 km/h (0 Bft)
29.05.2018 00:55 19,0 C 19,7 C 18,7 C 18,5 C 17,4 C 0,0 C 80 % 85 % 1016,8 hPa 0,0 l/m 0,0 km/h (0 Bft) NW 315 0 min 15,5 C 17,4 C 0,0 km/h (0 Bft)
29.05.2018 01:00 18,9 C 19,6 C 18,5 C 18,4 C 17,4 C 0,0 C 80 % 85 % 1016,8 hPa 0,0 l/m 0,0 km/h (0 Bft) N 360 0 min 15,4 C 17,4 C 0,0 km/h (0 Bft)
29.05.2018 01:05 18,8 C 19,6 C 18,4 C 18,3 C 17,4 C 0,0 C 80 % 85 % 1016,8 hPa 0,0 l/m 0,0 km/h (0 Bft) NO 45 0 min 15,3 C 17,4 C 0,0 km/h (0 Bft)
29.05.2018 01:10 18,7 C 19,6 C 18,5 C 18,3 C 17,4 C 0,0 C 80 % 86 % 1016,8 hPa 0,0 l/m 0,0 km/h (0 Bft) N-NW 337 0 min 15,2 C 17,4 C 0,0 km/h (0 Bft)
29.05.2018 01:15 18,6 C 19,6 C 18,3 C 18,2 C 17,4 C 0,0 C 81 % 85 % 1016,3 hPa 0,0 l/m 0,0 km/h (0 Bft) NW 315 0 min 15,3 C 17,4 C 0,0 km/h (0 Bft)
29.05.2018 01:20 18,4 C 19,6 C 18,3 C 18,1 C 17,4 C 0,0 C 81 % 86 % 1016,3 hPa 0,0 l/m 0,0 km/h (0 Bft) N-NO 22 0 min 15,1 C 17,4 C 0,0 km/h (0 Bft)
29.05.2018 01:25 18,5 C 19,6 C 18,3 C 18,1 C 17,4 C 0,0 C 82 % 86 % 1016,3 hPa 0,0 l/m 0,0 km/h (0 Bft) NO 45 0 min 15,4 C 17,4 C 0,0 km/h (0 Bft)
29.05.2018 01:30 18,3 C 19,7 C 18,3 C 18,0 C 17,3 C 0,0 C 82 % 86 % 1016,3 hPa 0,0 l/m 0,0 km/h (0 Bft) N 360 0 min 15,2 C 17,3 C 0,0 km/h (0 Bft)
29.05.2018 01:35 18,3 C 19,7 C 18,1 C 17,9 C 17,2 C 0,0 C 82 % 86 % 1016,2 hPa 0,0 l/m 0,0 km/h (0 Bft) N 360 0 min 15,2 C 17,2 C 0,0 km/h (0 Bft)
29.05.2018 01:40 18,1 C 19,7 C 18,0 C 17,8 C 17,1 C 0,0 C 82 % 86 % 1016,2 hPa 0,0 l/m 0,0 km/h (0 Bft) N-NO 22 0 min 15,0 C 17,1 C 0,0 km/h (0 Bft)
29.05.2018 01:45 18,0 C 19,7 C 17,9 C 17,7 C 17,1 C 0,0 C 82 % 86 % 1016,2 hPa 0,0 l/m 0,0 km/h (0 Bft) NO 45 0 min 14,9 C 17,1 C 0,0 km/h (0 Bft)
29.05.2018 01:50 17,9 C 19,6 C 17,9 C 17,6 C 17,0 C 0,0 C 82 % 87 % 1016,2 hPa 0,0 l/m 0,0 km/h (0 Bft) SW 225 0 min 14,8 C 17,0 C 0,0 km/h (0 Bft)
29.05.2018 01:55 17,8 C 19,6 C 17,9 C 17,5 C 16,9 C 0,0 C 82 % 87 % 1016,3 hPa 0,0 l/m 0,0 km/h (0 Bft) S-SW 202 0 min 14,7 C 16,9 C 0,0 km/h (0 Bft)
29.05.2018 02:00 17,7 C 19,7 C 17,7 C 17,3 C 16,5 C 0,0 C 83 % 87 % 1016,3 hPa 0,0 l/m 0,0 km/h (0 Bft) W-SW 247 0 min 14,8 C 16,5 C 0,0 km/h (0 Bft)
29.05.2018 02:05 17,6 C 19,7 C 17,6 C 17,2 C 16,4 C 0,0 C 83 % 86 % 1016,3 hPa 0,0 l/m 0,0 km/h (0 Bft) SW 225 0 min 14,7 C 16,4 C 0,0 km/h (0 Bft)
29.05.2018 02:10 17,5 C 19,6 C 17,5 C 17,1 C 16,2 C 0,0 C 83 % 87 % 1016,3 hPa 0,0 l/m 0,0 km/h (0 Bft) W 270 0 min 14,6 C 16,2 C 0,0 km/h (0 Bft)
29.05.2018 02:15 17,4 C 19,7 C 17,6 C 17,0 C 16,2 C 0,0 C 83 % 87 % 1016,0 hPa 0,0 l/m 0,0 km/h (0 Bft) W 270 0 min 14,5 C 16,2 C 0,0 km/h (0 Bft)
29.05.2018 02:20 17,3 C 19,6 C 17,5 C 16,9 C 16,2 C 0,0 C 83 % 87 % 1016,0 hPa 0,0 l/m 0,0 km/h (0 Bft) W 270 0 min 14,4 C 16,2 C 0,0 km/h (0 Bft)
29.05.2018 02:25 17,2 C 19,6 C 17,5 C 16,8 C 16,1 C 0,0 C 83 % 87 % 1016,0 hPa 0,0 l/m 0,0 km/h (0 Bft) W 270 0 min 14,3 C 16,1 C 0,0 km/h (0 Bft)
29.05.2018 02:30 17,2 C 19,6 C 17,4 C 16,8 C 16,1 C 0,0 C 83 % 87 % 1016,0 hPa 0,0 l/m 0,0 km/h (0 Bft) W-SW 247 0 min 14,3 C 16,1 C 0,0 km/h (0 Bft)
29.05.2018 02:35 17,1 C 19,7 C 17,3 C 16,7 C 15,9 C 0,0 C 83 % 87 % 1015,6 hPa 0,0 l/m 0,0 km/h (0 Bft) SW 225 0 min 14,2 C 15,9 C 0,0 km/h (0 Bft)
29.05.2018 02:40 17,0 C 19,6 C 17,1 C 16,6 C 15,7 C 0,0 C 83 % 87 % 1015,6 hPa 0,0 l/m 0,0 km/h (0 Bft) NW 315 0 min 14,1 C 15,7 C 0,0 km/h (0 Bft)
29.05.2018 02:45 16,8 C 19,6 C 17,1 C 16,4 C 15,7 C 0,0 C 84 % 88 % 1015,6 hPa 0,0 l/m 0,0 km/h (0 Bft) W 270 0 min 14,1 C 15,7 C 0,0 km/h (0 Bft)
29.05.2018 02:50 16,8 C 19,5 C 17,0 C 16,4 C 15,7 C 0,0 C 84 % 88 % 1015,6 hPa 0,0 l/m 0,0 km/h (0 Bft) N-NW 337 0 min 14,1 C 15,7 C 0,0 km/h (0 Bft)
29.05.2018 02:55 16,7 C 19,5 C 17,0 C 16,4 C 15,7 C 0,0 C 84 % 88 % 1015,3 hPa 0,0 l/m 0,0 km/h (0 Bft) N-NW 337 0 min 14,0 C 15,7 C 0,0 km/h (0 Bft)
29.05.2018 03:00 16,7 C 19,5 C 17,1 C 16,4 C 15,9 C 0,0 C 84 % 88 % 1015,3 hPa 0,0 l/m 0,0 km/h (0 Bft) O-NO 67 0 min 14,0 C 15,9 C 0,0 km/h (0 Bft)
29.05.2018 03:05 16,5 C 19,5 C 17,1 C 16,4 C 16,1 C 0,0 C 84 % 88 % 1015,3 hPa 0,0 l/m 0,0 km/h (0 Bft) NW 315 0 min 13,8 C 16,1 C 0,0 km/h (0 Bft)
29.05.2018 03:10 16,5 C 19,4 C 17,1 C 16,4 C 16,2 C 0,0 C 84 % 88 % 1015,3 hPa 0,0 l/m 0,0 km/h (0 Bft) O-NO 67 0 min 13,8 C 16,2 C 0,0 km/h (0 Bft)
29.05.2018 03:15 16,4 C 19,4 C 17,1 C 16,4 C 16,4 C 0,0 C 84 % 88 % 1015,1 hPa 0,0 l/m 0,2 km/h (0 Bft) N-NW 337 0 min 13,7 C 16,4 C 0,0 km/h (0 Bft)
29.05.2018 03:20 16,4 C 19,4 C 17,2 C 16,8 C 16,8 C 0,4 C 85 % 88 % 1015,1 hPa 0,0 l/m 0,2 km/h (0 Bft) NW 315 0 min 13,9 C 16,8 C 0,0 km/h (0 Bft)
29.05.2018 03:25 16,4 C 19,3 C 17,2 C 16,8 C 16,8 C 0,4 C 85 % 88 % 1015,1 hPa 0,0 l/m 0,0 km/h (0 Bft) S-SW 202 0 min 13,9 C 16,8 C 0,0 km/h (0 Bft)
29.05.2018 03:30 16,4 C 19,3 C 17,1 C 16,6 C 16,6 C 0,2 C 85 % 87 % 1015,1 hPa 0,0 l/m 0,0 km/h (0 Bft) SW 225 0 min 13,9 C 16,6 C 0,0 km/h (0 Bft)
29.05.2018 03:35 16,4 C 19,3 C 17,0 C 16,5 C 16,5 C 0,1 C 85 % 87 % 1015,3 hPa 0,0 l/m 0,0 km/h (0 Bft) W 270 0 min 13,9 C 16,5 C 0,0 km/h (0 Bft)
29.05.2018 03:40 16,5 C 19,3 C 17,0 C 16,8 C 16,8 C 0,3 C 85 % 87 % 1015,3 hPa 0,0 l/m 1,3 km/h (1 Bft) O-NO 67 0 min 14,0 C 16,8 C 4,2 km/h (1 Bft)
29.05.2018 03:45 16,8 C 19,2 C 17,5 C 17,3 C 17,3 C 0,5 C 85 % 87 % 1015,3 hPa 0,0 l/m 2,4 km/h (1 Bft) O-NO 67 0 min 14,3 C 17,3 C 5,6 km/h (1 Bft)
29.05.2018 03:50 17,6 C 19,2 C 18,1 C 18,0 C 18,0 C 0,4 C 84 % 84 % 1015,3 hPa 0,0 l/m 3,5 km/h (1 Bft) O-NO 67 0 min 14,9 C 18,0 C 4,2 km/h (1 Bft)
29.05.2018 03:55 18,0 C 19,2 C 18,3 C 18,2 C 18,2 C 0,2 C 83 % 84 % 1015,1 hPa 0,0 l/m 3,4 km/h (1 Bft) NO 45 0 min 15,1 C 18,2 C 3,1 km/h (1 Bft)
29.05.2018 04:00 18,3 C 19,2 C 18,3 C 18,3 C 18,3 C 0,0 C 82 % 83 % 1015,1 hPa 0,0 l/m 2,6 km/h (1 Bft) NO 45 0 min 15,2 C 18,3 C 3,9 km/h (1 Bft)
29.05.2018 04:05 18,4 C 19,2 C 18,5 C 18,4 C 18,3 C 0,0 C 81 % 82 % 1015,1 hPa 0,0 l/m 2,9 km/h (1 Bft) NO 45 0 min 15,1 C 18,3 C 5,5 km/h (1 Bft)
29.05.2018 04:10 18,7 C 19,2 C 18,5 C 18,6 C 18,5 C 0,0 C 80 % 81 % 1015,1 hPa 0,0 l/m 3,9 km/h (1 Bft) NO 45 0 min 15,2 C 18,5 C 1,9 km/h (1 Bft)
29.05.2018 04:15 18,7 C 19,2 C 18,4 C 18,6 C 18,3 C 0,0 C 80 % 81 % 1014,9 hPa 0,0 l/m 2,9 km/h (1 Bft) N-NO 22 0 min 15,2 C 18,3 C 0,0 km/h (0 Bft)
29.05.2018 04:20 18,6 C 19,2 C 18,1 C 18,4 C 18,0 C 0,0 C 79 % 81 % 1014,9 hPa 0,0 l/m 0,8 km/h (0 Bft) NO 45 0 min 14,9 C 18,0 C 0,0 km/h (0 Bft)
29.05.2018 04:25 18,4 C 19,2 C 17,9 C 18,1 C 17,5 C 0,0 C 78 % 82 % 1014,9 hPa 0,0 l/m 0,0 km/h (0 Bft) N-NO 22 0 min 14,5 C 17,5 C 0,0 km/h (0 Bft)
29.05.2018 04:30 18,3 C 19,1 C 17,7 C 17,9 C 17,0 C 0,0 C 78 % 82 % 1014,9 hPa 0,0 l/m 0,0 km/h (0 Bft) O-NO 67 0 min 14,4 C 17,0 C 0,0 km/h (0 Bft)
29.05.2018 04:35 18,1 C 19,1 C 17,7 C 17,7 C 16,8 C 0,0 C 78 % 83 % 1014,8 hPa 0,0 l/m 0,0 km/h (0 Bft) N-NO 22 0 min 14,2 C 16,8 C 0,0 km/h (0 Bft)
29.05.2018 04:40 18,0 C 19,1 C 17,5 C 17,5 C 16,5 C 0,0 C 79 % 83 % 1014,8 hPa 0,0 l/m 0,0 km/h (0 Bft) N-NO 22 0 min 14,3 C 16,5 C 0,0 km/h (0 Bft)
29.05.2018 04:45 17,9 C 19,1 C 17,3 C 17,4 C 16,3 C 0,0 C 79 % 83 % 1014,8 hPa 0,0 l/m 0,0 km/h (0 Bft) N-NO 22 0 min 14,2 C 16,3 C 0,0 km/h (0 Bft)
29.05.2018 04:50 17,7 C 19,1 C 17,2 C 17,2 C 16,1 C 0,0 C 79 % 84 % 1014,8 hPa 0,0 l/m 0,0 km/h (0 Bft) NW 315 0 min 14,0 C 16,1 C 0,0 km/h (0 Bft)
29.05.2018 04:55 17,5 C 19,1 C 17,1 C 17,0 C 16,0 C 0,0 C 79 % 84 % 1014,7 hPa 0,0 l/m 0,0 km/h (0 Bft) NW 315 0 min 13,8 C 16,0 C 0,0 km/h (0 Bft)
29.05.2018 05:00 17,5 C 19,1 C 17,1 C 17,0 C 15,9 C 0,0 C 79 % 84 % 1014,7 hPa 0,0 l/m 0,0 km/h (0 Bft) NW 315 0 min 13,8 C 15,9 C 0,0 km/h (0 Bft)
29.05.2018 05:05 17,3 C 19,1 C 16,9 C 16,8 C 15,9 C 0,0 C 80 % 84 % 1014,7 hPa 0,0 l/m 0,0 km/h (0 Bft) NW 315 0 min 13,8 C 15,9 C 0,0 km/h (0 Bft)
29.05.2018 05:10 17,3 C 19,1 C 16,9 C 16,8 C 15,8 C 0,0 C 80 % 85 % 1014,7 hPa 0,0 l/m 0,0 km/h (0 Bft) W-SW 247 0 min 13,8 C 15,8 C 0,0 km/h (0 Bft)
29.05.2018 05:15 17,2 C 19,1 C 16,9 C 16,7 C 15,7 C 0,0 C 80 % 85 % 1014,8 hPa 0,0 l/m 0,0 km/h (0 Bft) W 270 0 min 13,7 C 15,7 C 0,0 km/h (0 Bft)
29.05.2018 05:20 17,1 C 19,1 C 16,9 C 16,6 C 15,7 C 0,0 C 81 % 85 % 1014,8 hPa 0,0 l/m 0,0 km/h (0 Bft) W 270 0 min 13,8 C 15,7 C 0,0 km/h (0 Bft)
29.05.2018 05:25 17,0 C 19,1 C 16,8 C 16,6 C 15,7 C 0,0 C 81 % 85 % 1014,8 hPa 0,0 l/m 0,0 km/h (0 Bft) W-NW 292 0 min 13,7 C 15,7 C 0,0 km/h (0 Bft)
29.05.2018 05:30 16,9 C 19,1 C 16,7 C 16,6 C 15,9 C 0,0 C 81 % 86 % 1014,8 hPa 0,0 l/m 0,0 km/h (0 Bft) W-NW 292 0 min 13,6 C 15,9 C 0,0 km/h (0 Bft)
29.05.2018 05:35 16,8 C 19,0 C 16,8 C 16,5 C 16,0 C 0,0 C 82 % 86 % 1014,8 hPa 0,0 l/m 0,0 km/h (0 Bft) W-SW 247 0 min 13,7 C 16,0 C 0,0 km/h (0 Bft)
29.05.2018 05:40 16,8 C 19,0 C 16,8 C 16,6 C 16,1 C 0,0 C 82 % 86 % 1014,8 hPa 0,0 l/m 0,0 km/h (0 Bft) W-SW 247 0 min 13,7 C 16,1 C 0,0 km/h (0 Bft)
29.05.2018 05:45 16,8 C 19,0 C 16,9 C 16,6 C 16,1 C 0,0 C 82 % 86 % 1014,8 hPa 0,0 l/m 0,0 km/h (0 Bft) W-SW 247 0 min 13,7 C 16,1 C 0,0 km/h (0 Bft)
29.05.2018 05:50 16,8 C 19,0 C 16,8 C 16,6 C 16,2 C 0,0 C 82 % 86 % 1014,8 hPa 0,0 l/m 0,0 km/h (0 Bft) W 270 0 min 13,7 C 16,2 C 0,0 km/h (0 Bft)
29.05.2018 05:55 16,8 C 19,0 C 16,9 C 16,6 C 16,3 C 0,0 C 82 % 86 % 1014,8 hPa 0,0 l/m 0,0 km/h (0 Bft) W 270 0 min 13,7 C 16,3 C 0,0 km/h (0 Bft)
29.05.2018 06:00 16,7 C 19,0 C 16,9 C 16,6 C 16,4 C 0,0 C 82 % 86 % 1014,8 hPa 0,0 l/m 0,0 km/h (0 Bft) N-NW 337 0 min 13,6 C 16,4 C 0,0 km/h (0 Bft)
29.05.2018 06:05 16,8 C 19,0 C 17,1 C 16,7 C 16,5 C 0,0 C 82 % 86 % 1014,8 hPa 0,0 l/m 0,0 km/h (0 Bft) NW 315 0 min 13,7 C 16,5 C 0,0 km/h (0 Bft)
29.05.2018 06:10 16,9 C 18,9 C 17,1 C 16,9 C 16,9 C 0,0 C 83 % 86 % 1014,8 hPa 0,0 l/m 0,6 km/h (0 Bft) NO 45 0 min 14,0 C 16,9 C 2,7 km/h (1 Bft)
29.05.2018 06:15 17,0 C 18,9 C 17,2 C 17,1 C 17,1 C 0,1 C 83 % 86 % 1014,7 hPa 0,0 l/m 0,6 km/h (0 Bft) W 270 0 min 14,1 C 17,1 C 0,0 km/h (0 Bft)
29.05.2018 06:20 17,1 C 18,9 C 17,2 C 17,2 C 17,2 C 0,1 C 82 % 86 % 1014,7 hPa 0,0 l/m 0,2 km/h (0 Bft) W-SW 247 0 min 14,0 C 17,2 C 0,0 km/h (0 Bft)
29.05.2018 06:25 17,0 C 18,9 C 17,3 C 17,2 C 17,2 C 0,2 C 82 % 86 % 1014,7 hPa 0,0 l/m 0,0 km/h (0 Bft) W-SW 247 0 min 13,9 C 17,2 C 0,0 km/h (0 Bft)
29.05.2018 06:30 17,1 C 18,9 C 17,3 C 17,3 C 17,3 C 0,2 C 83 % 85 % 1014,7 hPa 0,0 l/m 0,0 km/h (0 Bft) NW 315 0 min 14,2 C 17,3 C 0,0 km/h (0 Bft)
29.05.2018 06:35 17,1 C 18,9 C 17,4 C 17,4 C 17,4 C 0,3 C 82 % 85 % 1015,0 hPa 0,0 l/m 0,2 km/h (0 Bft) W-NW 292 0 min 14,0 C 17,4 C 0,0 km/h (0 Bft)
29.05.2018 06:40 17,2 C 18,9 C 17,6 C 17,8 C 17,8 C 0,6 C 82 % 85 % 1015,0 hPa 0,0 l/m 0,2 km/h (0 Bft) W 270 0 min 14,1 C 17,8 C 0,0 km/h (0 Bft)
29.05.2018 06:45 17,3 C 18,9 C 17,7 C 18,0 C 18,0 C 0,7 C 83 % 85 % 1015,0 hPa 0,0 l/m 0,5 km/h (0 Bft) W-NW 292 0 min 14,4 C 18,0 C 1,6 km/h (1 Bft)
29.05.2018 06:50 17,5 C 18,9 C 18,1 C 18,3 C 18,3 C 0,8 C 83 % 85 % 1015,0 hPa 0,0 l/m 0,5 km/h (0 Bft) W-SW 247 0 min 14,6 C 18,3 C 0,0 km/h (0 Bft)
29.05.2018 06:55 17,7 C 18,9 C 18,3 C 18,7 C 18,7 C 1,0 C 83 % 85 % 1014,9 hPa 0,0 l/m 0,3 km/h (0 Bft) W-SW 247 0 min 14,8 C 18,7 C 0,0 km/h (0 Bft)
29.05.2018 07:00 17,8 C 18,9 C 18,5 C 21,7 C 21,7 C 3,9 C 83 % 84 % 1014,9 hPa 0,0 l/m 0,2 km/h (0 Bft) W 270 5 min 14,9 C 21,7 C 2,6 km/h (1 Bft)
29.05.2018 07:05 18,1 C 18,9 C 18,8 C 23,5 C 23,5 C 5,4 C 83 % 84 % 1014,9 hPa 0,0 l/m 0,2 km/h (0 Bft) NW 315 5 min 15,2 C 23,5 C 2,3 km/h (1 Bft)
29.05.2018 07:10 18,4 C 18,8 C 19,1 C 25,1 C 25,1 C 6,7 C 83 % 83 % 1014,9 hPa 0,0 l/m 0,3 km/h (0 Bft) NW 315 5 min 15,5 C 25,1 C 2,3 km/h (1 Bft)
29.05.2018 07:15 18,8 C 18,8 C 19,2 C 26,1 C 26,1 C 7,3 C 82 % 83 % 1014,9 hPa 0,0 l/m 0,5 km/h (0 Bft) NW 315 5 min 15,7 C 26,1 C 1,6 km/h (1 Bft)
29.05.2018 07:20 19,4 C 18,8 C 19,5 C 26,9 C 26,9 C 7,5 C 81 % 82 % 1014,9 hPa 0,0 l/m 0,6 km/h (0 Bft) W-SW 247 5 min 16,1 C 26,9 C 0,0 km/h (0 Bft)
29.05.2018 07:25 19,9 C 18,8 C 19,7 C 27,7 C 27,7 C 7,8 C 81 % 81 % 1014,9 hPa 0,0 l/m 0,5 km/h (0 Bft) W-NW 292 5 min 16,5 C 27,7 C 0,0 km/h (0 Bft)
29.05.2018 07:30 20,6 C 18,8 C 20,1 C 28,7 C 28,7 C 8,1 C 79 % 81 % 1014,9 hPa 0,0 l/m 0,2 km/h (0 Bft) W 270 5 min 16,8 C 28,7 C 0,0 km/h (0 Bft)
29.05.2018 07:35 21,1 C 18,8 C 20,1 C 29,2 C 29,2 C 8,1 C 78 % 81 % 1014,8 hPa 0,0 l/m 0,2 km/h (0 Bft) N-NW 337 5 min 17,1 C 29,2 C 0,0 km/h (0 Bft)
29.05.2018 07:40 21,6 C 18,8 C 20,3 C 29,7 C 29,7 C 8,1 C 76 % 80 % 1014,8 hPa 0,0 l/m 0,3 km/h (0 Bft) N-NW 337 5 min 17,2 C 29,7 C 0,0 km/h (0 Bft)
29.05.2018 07:45 21,9 C 18,8 C 20,5 C 30,0 C 30,0 C 8,1 C 75 % 80 % 1014,8 hPa 0,0 l/m 0,3 km/h (0 Bft) W-NW 292 5 min 17,3 C 30,0 C 0,0 km/h (0 Bft)
29.05.2018 07:50 22,5 C 18,8 C 20,7 C 31,2 C 31,2 C 8,7 C 74 % 80 % 1014,8 hPa 0,0 l/m 0,0 km/h (0 Bft) N-NW 337 5 min 17,6 C 31,2 C 0,0 km/h (0 Bft)
29.05.2018 07:55 22,9 C 18,8 C 20,8 C 31,7 C 31,7 C 8,8 C 73 % 80 % 1014,7 hPa 0,0 l/m 0,0 km/h (0 Bft) NW 315 5 min 17,8 C 31,7 C 1,6 km/h (1 Bft)
29.05.2018 08:00 23,0 C 18,8 C 21,5 C 30,6 C 30,6 C 7,6 C 71 % 80 % 1014,7 hPa 0,0 l/m 2,3 km/h (1 Bft) O-NO 67 5 min 17,4 C 30,6 C 4,7 km/h (1 Bft)
29.05.2018 08:05 23,1 C 18,8 C 21,9 C 29,8 C 29,8 C 6,7 C 70 % 79 % 1014,7 hPa 0,0 l/m 3,9 km/h (1 Bft) O-NO 67 5 min 17,3 C 29,8 C 8,0 km/h (2 Bft)
29.05.2018 08:10 23,2 C 18,8 C 22,2 C 28,9 C 28,9 C 5,7 C 69 % 77 % 1014,7 hPa 0,0 l/m 5,6 km/h (1 Bft) O-NO 67 5 min 17,2 C 28,9 C 8,0 km/h (2 Bft)
29.05.2018 08:15 23,2 C 18,8 C 22,3 C 28,7 C 28,7 C 5,5 C 69 % 76 % 1014,6 hPa 0,0 l/m 6,1 km/h (2 Bft) NO 45 5 min 17,2 C 28,7 C 10,0 km/h (2 Bft)
29.05.2018 08:20 23,5 C 18,8 C 22,5 C 28,5 C 28,5 C 5,0 C 67 % 75 % 1014,6 hPa 0,0 l/m 6,4 km/h (2 Bft) NO 45 5 min 17,0 C 28,5 C 9,2 km/h (2 Bft)
29.05.2018 08:25 23,7 C 18,8 C 22,7 C 28,3 C 28,3 C 4,6 C 67 % 74 % 1014,6 hPa 0,0 l/m 6,4 km/h (2 Bft) NO 45 5 min 17,2 C 28,3 C 10,8 km/h (2 Bft)
29.05.2018 08:30 23,9 C 18,8 C 22,8 C 28,7 C 28,7 C 4,8 C 67 % 74 % 1014,6 hPa 0,0 l/m 5,8 km/h (2 Bft) NO 45 5 min 17,4 C 28,7 C 4,8 km/h (1 Bft)
29.05.2018 08:35 23,9 C 18,8 C 23,1 C 28,8 C 28,8 C 4,9 C 66 % 74 % 1014,6 hPa 0,0 l/m 5,8 km/h (2 Bft) NO 45 5 min 17,1 C 28,8 C 11,9 km/h (2 Bft)
29.05.2018 08:40 24,0 C 18,8 C 23,3 C 28,7 C 28,7 C 4,7 C 65 % 72 % 1014,6 hPa 0,0 l/m 6,8 km/h (2 Bft) NO 45 5 min 17,0 C 28,7 C 11,9 km/h (2 Bft)
29.05.2018 08:45 24,1 C 18,8 C 23,3 C 28,7 C 28,7 C 4,6 C 66 % 72 % 1014,6 hPa 0,0 l/m 6,8 km/h (2 Bft) O-NO 67 5 min 17,3 C 28,7 C 13,0 km/h (3 Bft)
29.05.2018 08:50 24,5 C 18,8 C 23,5 C 29,2 C 29,2 C 4,7 C 65 % 72 % 1014,6 hPa 0,0 l/m 5,6 km/h (1 Bft) N-NO 22 5 min 17,5 C 29,2 C 4,7 km/h (1 Bft)
29.05.2018 08:55 24,7 C 18,8 C 23,4 C 29,5 C 29,5 C 4,8 C 64 % 72 % 1014,6 hPa 0,0 l/m 5,5 km/h (1 Bft) O-NO 67 5 min 17,4 C 29,5 C 12,1 km/h (2 Bft)
29.05.2018 09:00 24,9 C 18,8 C 23,7 C 29,6 C 29,6 C 4,7 C 63 % 72 % 1014,6 hPa 0,0 l/m 5,6 km/h (1 Bft) NO 45 5 min 17,4 C 29,6 C 8,7 km/h (2 Bft)
29.05.2018 09:05 24,9 C 18,8 C 23,9 C 29,4 C 29,4 C 4,5 C 63 % 71 % 1014,6 hPa 0,0 l/m 6,6 km/h (2 Bft) O-NO 67 5 min 17,4 C 29,4 C 8,9 km/h (2 Bft)
29.05.2018 09:10 25,0 C 18,8 C 23,9 C 29,3 C 29,3 C 4,3 C 62 % 71 % 1014,6 hPa 0,0 l/m 7,6 km/h (2 Bft) NO 45 5 min 17,2 C 29,3 C 10,6 km/h (2 Bft)
29.05.2018 09:15 25,1 C 18,9 C 24,0 C 29,2 C 29,2 C 4,1 C 62 % 70 % 1014,3 hPa 0,0 l/m 7,4 km/h (2 Bft) O-NO 67 5 min 17,3 C 29,2 C 6,0 km/h (2 Bft)
29.05.2018 09:20 25,2 C 18,9 C 24,1 C 29,4 C 29,4 C 4,2 C 62 % 70 % 1014,3 hPa 0,0 l/m 7,2 km/h (2 Bft) O-NO 67 5 min 17,4 C 29,4 C 10,3 km/h (2 Bft)
29.05.2018 09:25 25,3 C 18,9 C 24,2 C 29,6 C 29,6 C 4,3 C 62 % 69 % 1014,3 hPa 0,0 l/m 6,1 km/h (2 Bft) O-NO 67 5 min 17,5 C 29,6 C 7,9 km/h (2 Bft)
29.05.2018 09:30 25,3 C 18,8 C 24,5 C 29,8 C 29,8 C 4,5 C 63 % 69 % 1014,3 hPa 0,0 l/m 5,8 km/h (2 Bft) O-NO 67 5 min 17,7 C 29,8 C 5,1 km/h (1 Bft)
29.05.2018 09:35 25,5 C 18,8 C 24,5 C 29,5 C 29,5 C 4,0 C 63 % 69 % 1014,1 hPa 0,0 l/m 5,3 km/h (1 Bft) N-NO 22 5 min 17,9 C 29,5 C 8,2 km/h (2 Bft)
29.05.2018 09:40 25,7 C 18,8 C 24,5 C 28,0 C 28,0 C 2,3 C 62 % 68 % 1014,1 hPa 0,0 l/m 5,1 km/h (1 Bft) O-NO 67 0 min 17,9 C 28,0 C 10,3 km/h (2 Bft)
29.05.2018 09:45 25,6 C 18,8 C 24,7 C 27,5 C 27,5 C 1,9 C 61 % 69 % 1014,1 hPa 0,0 l/m 6,3 km/h (2 Bft) O-NO 67 0 min 17,5 C 27,5 C 7,4 km/h (2 Bft)
29.05.2018 09:50 25,6 C 18,8 C 24,8 C 27,2 C 27,2 C 1,6 C 61 % 68 % 1014,1 hPa 0,0 l/m 6,9 km/h (2 Bft) NO 45 0 min 17,5 C 27,2 C 10,6 km/h (2 Bft)
29.05.2018 09:55 25,7 C 18,8 C 25,0 C 27,2 C 27,2 C 1,5 C 61 % 68 % 1014,2 hPa 0,0 l/m 6,1 km/h (2 Bft) O-NO 67 0 min 17,6 C 27,2 C 7,4 km/h (2 Bft)
29.05.2018 10:00 25,9 C 18,8 C 24,9 C 27,5 C 27,5 C 1,6 C 62 % 67 % 1014,2 hPa 0,0 l/m 5,0 km/h (1 Bft) O-NO 67 0 min 18,0 C 27,5 C 5,0 km/h (1 Bft)
29.05.2018 10:05 26,1 C 18,9 C 25,1 C 27,4 C 27,4 C 1,3 C 61 % 68 % 1014,2 hPa 0,0 l/m 5,1 km/h (1 Bft) NO 45 0 min 18,0 C 27,4 C 7,6 km/h (2 Bft)
29.05.2018 10:10 26,1 C 18,9 C 25,2 C 27,4 C 27,4 C 1,3 C 60 % 67 % 1014,2 hPa 0,0 l/m 6,8 km/h (2 Bft) N-NO 22 0 min 17,7 C 27,4 C 6,0 km/h (2 Bft)
29.05.2018 10:15 26,0 C 18,9 C 25,3 C 28,3 C 28,3 C 2,3 C 60 % 66 % 1013,9 hPa 0,0 l/m 8,0 km/h (2 Bft) O-NO 67 0 min 17,6 C 28,3 C 14,0 km/h (3 Bft)
29.05.2018 10:20 26,2 C 18,9 C 25,5 C 29,5 C 29,5 C 3,3 C 60 % 66 % 1013,9 hPa 0,0 l/m 7,6 km/h (2 Bft) O-NO 67 5 min 17,8 C 29,5 C 5,6 km/h (1 Bft)
29.05.2018 10:25 26,3 C 18,9 C 25,5 C 30,2 C 30,2 C 3,9 C 59 % 66 % 1013,9 hPa 0,0 l/m 7,2 km/h (2 Bft) NO 45 5 min 17,6 C 30,2 C 15,0 km/h (3 Bft)
29.05.2018 10:30 26,3 C 18,9 C 25,7 C 30,4 C 30,4 C 4,1 C 59 % 65 % 1013,9 hPa 0,0 l/m 7,1 km/h (2 Bft) O 90 5 min 17,6 C 30,4 C 4,2 km/h (1 Bft)
29.05.2018 10:35 26,4 C 18,9 C 25,7 C 30,6 C 30,6 C 4,2 C 58 % 65 % 1013,9 hPa 0,0 l/m 7,7 km/h (2 Bft) O-NO 67 5 min 17,5 C 30,6 C 6,3 km/h (2 Bft)
29.05.2018 10:40 26,7 C 18,9 C 25,9 C 31,1 C 31,1 C 4,4 C 58 % 65 % 1013,9 hPa 0,0 l/m 6,0 km/h (2 Bft) O-NO 67 5 min 17,7 C 31,1 C 5,3 km/h (1 Bft)
29.05.2018 10:45 26,6 C 18,9 C 25,8 C 31,1 C 31,1 C 4,5 C 59 % 65 % 1013,9 hPa 0,0 l/m 5,6 km/h (1 Bft) NO 45 5 min 17,9 C 31,1 C 7,1 km/h (2 Bft)
29.05.2018 10:50 26,6 C 19,0 C 26,1 C 31,0 C 31,0 C 4,4 C 58 % 64 % 1013,9 hPa 0,0 l/m 7,4 km/h (2 Bft) O-NO 67 5 min 17,6 C 31,0 C 6,3 km/h (2 Bft)
29.05.2018 10:55 26,7 C 18,9 C 26,0 C 31,1 C 31,1 C 4,4 C 60 % 65 % 1014,2 hPa 0,0 l/m 6,8 km/h (2 Bft) NO 45 5 min 18,3 C 31,1 C 8,5 km/h (2 Bft)
29.05.2018 11:00 26,8 C 18,9 C 26,2 C 31,4 C 31,4 C 4,6 C 58 % 64 % 1014,2 hPa 0,0 l/m 5,8 km/h (2 Bft) N-NO 22 5 min 17,8 C 31,4 C 8,4 km/h (2 Bft)
29.05.2018 11:05 27,1 C 18,9 C 26,2 C 31,4 C 31,4 C 4,3 C 57 % 64 % 1014,2 hPa 0,0 l/m 6,3 km/h (2 Bft) N-NO 22 5 min 17,8 C 31,4 C 6,1 km/h (2 Bft)
29.05.2018 11:10 27,1 C 18,9 C 26,5 C 31,4 C 31,4 C 4,3 C 57 % 63 % 1014,2 hPa 0,0 l/m 6,9 km/h (2 Bft) NO 45 5 min 17,8 C 31,4 C 9,2 km/h (2 Bft)
29.05.2018 11:15 27,1 C 18,9 C 26,5 C 31,0 C 31,0 C 3,9 C 57 % 63 % 1013,6 hPa 0,0 l/m 7,2 km/h (2 Bft) O-NO 67 5 min 17,8 C 31,0 C 11,6 km/h (2 Bft)
29.05.2018 11:20 27,1 C 19,0 C 26,6 C 30,2 C 30,2 C 3,1 C 56 % 61 % 1013,6 hPa 0,0 l/m 8,9 km/h (2 Bft) O-NO 67 0 min 17,5 C 30,2 C 10,6 km/h (2 Bft)
29.05.2018 11:25 27,3 C 19,0 C 26,7 C 30,0 C 30,0 C 2,7 C 58 % 62 % 1013,6 hPa 0,0 l/m 7,2 km/h (2 Bft) O-NO 67 0 min 18,3 C 30,0 C 16,1 km/h (3 Bft)
29.05.2018 11:30 27,5 C 19,0 C 26,8 C 30,5 C 30,5 C 3,0 C 56 % 62 % 1013,6 hPa 0,0 l/m 5,0 km/h (1 Bft) N-NO 22 0 min 17,9 C 30,5 C 8,5 km/h (2 Bft)
29.05.2018 11:35 27,5 C 19,0 C 27,0 C 30,9 C 30,9 C 3,4 C 56 % 61 % 1013,6 hPa 0,0 l/m 5,8 km/h (2 Bft) NO 45 5 min 17,9 C 30,9 C 7,6 km/h (2 Bft)
29.05.2018 11:40 27,7 C 19,0 C 27,1 C 31,5 C 31,5 C 3,8 C 56 % 61 % 1013,6 hPa 0,0 l/m 7,2 km/h (2 Bft) O-NO 67 5 min 18,1 C 31,5 C 10,0 km/h (2 Bft)
29.05.2018 11:45 27,7 C 19,0 C 27,1 C 31,6 C 31,6 C 3,9 C 56 % 61 % 1013,6 hPa 0,0 l/m 6,6 km/h (2 Bft) O-NO 67 5 min 18,1 C 31,6 C 7,9 km/h (2 Bft)
29.05.2018 11:50 27,7 C 19,1 C 27,3 C 31,8 C 31,8 C 4,1 C 56 % 61 % 1013,6 hPa 0,0 l/m 7,2 km/h (2 Bft) O-NO 67 5 min 18,1 C 31,8 C 14,6 km/h (3 Bft)
29.05.2018 11:55 27,7 C 19,1 C 27,3 C 31,6 C 31,6 C 3,9 C 56 % 60 % 1013,4 hPa 0,0 l/m 7,9 km/h (2 Bft) O-NO 67 5 min 18,1 C 31,6 C 8,5 km/h (2 Bft)
29.05.2018 12:00 27,9 C 19,1 C 27,5 C 31,8 C 31,8 C 3,9 C 55 % 60 % 1013,4 hPa 0,0 l/m 7,9 km/h (2 Bft) O-NO 67 5 min 18,0 C 31,8 C 15,6 km/h (3 Bft)
29.05.2018 12:05 28,1 C 19,1 C 27,6 C 31,9 C 31,9 C 3,8 C 55 % 59 % 1013,4 hPa 0,0 l/m 6,6 km/h (2 Bft) O 90 5 min 18,2 C 31,9 C 2,9 km/h (1 Bft)
29.05.2018 12:10 28,2 C 19,1 C 27,9 C 32,3 C 32,3 C 4,1 C 53 % 59 % 1013,4 hPa 0,0 l/m 7,1 km/h (2 Bft) N-NO 22 5 min 17,7 C 32,3 C 7,6 km/h (2 Bft)
29.05.2018 12:15 28,2 C 19,1 C 28,0 C 32,2 C 32,2 C 4,0 C 54 % 58 % 1013,5 hPa 0,0 l/m 7,2 km/h (2 Bft) NO 45 5 min 18,0 C 32,2 C 10,6 km/h (2 Bft)
29.05.2018 12:20 28,4 C 19,1 C 28,1 C 31,9 C 31,9 C 3,5 C 52 % 56 % 1013,5 hPa 0,0 l/m 8,9 km/h (2 Bft) NO 45 5 min 17,6 C 31,9 C 11,3 km/h (2 Bft)
29.05.2018 12:25 28,5 C 19,1 C 28,1 C 31,9 C 31,9 C 3,4 C 52 % 57 % 1013,5 hPa 0,0 l/m 9,2 km/h (2 Bft) NO 45 5 min 17,7 C 31,9 C 17,4 km/h (3 Bft)
29.05.2018 12:30 28,7 C 19,1 C 28,2 C 32,1 C 32,1 C 3,4 C 50 % 55 % 1013,5 hPa 0,0 l/m 9,0 km/h (2 Bft) O-NO 67 5 min 17,2 C 32,1 C 15,9 km/h (3 Bft)
29.05.2018 12:35 28,7 C 19,1 C 28,3 C 31,8 C 31,8 C 3,1 C 50 % 55 % 1013,3 hPa 0,0 l/m 9,7 km/h (2 Bft) O-NO 67 0 min 17,2 C 31,8 C 11,3 km/h (2 Bft)
29.05.2018 12:40 29,1 C 19,1 C 28,4 C 32,2 C 32,2 C 3,1 C 50 % 55 % 1013,3 hPa 0,0 l/m 9,0 km/h (2 Bft) O-NO 67 0 min 17,6 C 32,2 C 9,3 km/h (2 Bft)
29.05.2018 12:45 29,1 C 19,2 C 28,4 C 32,4 C 32,4 C 3,3 C 49 % 55 % 1013,3 hPa 0,0 l/m 7,2 km/h (2 Bft) NO 45 5 min 17,3 C 32,4 C 8,7 km/h (2 Bft)
29.05.2018 12:50 29,3 C 19,2 C 28,4 C 32,6 C 32,6 C 3,3 C 50 % 56 % 1013,3 hPa 0,0 l/m 7,1 km/h (2 Bft) O-NO 67 5 min 17,8 C 32,6 C 1,9 km/h (1 Bft)
29.05.2018 12:55 29,6 C 19,2 C 28,7 C 33,1 C 33,1 C 3,5 C 49 % 55 % 1013,1 hPa 0,0 l/m 6,0 km/h (2 Bft) NO 45 5 min 17,7 C 33,1 C 2,6 km/h (1 Bft)
29.05.2018 13:00 29,6 C 19,2 C 28,8 C 33,1 C 33,1 C 3,5 C 48 % 53 % 1013,1 hPa 0,0 l/m 6,3 km/h (2 Bft) O-NO 67 5 min 17,4 C 33,1 C 3,9 km/h (1 Bft)
29.05.2018 13:05 29,7 C 19,2 C 28,9 C 33,1 C 33,1 C 3,4 C 47 % 53 % 1013,1 hPa 0,0 l/m 7,2 km/h (2 Bft) NO 45 5 min 17,2 C 33,1 C 12,1 km/h (2 Bft)
29.05.2018 13:11 29,7 C 19,3 C 29,1 C 33,0 C 33,0 C 3,3 C 46 % 52 % 1013,1 hPa 0,0 l/m 7,7 km/h (2 Bft) O-NO 67 6 min 16,8 C 33,0 C 10,1 km/h (2 Bft)
29.05.2018 13:15 29,7 C 19,3 C 29,4 C 33,1 C 33,1 C 3,4 C 48 % 53 % 1012,9 hPa 0,0 l/m 7,2 km/h (2 Bft) NO 45 4 min 17,5 C 33,1 C 8,7 km/h (2 Bft)
29.05.2018 13:22 29,8 C 19,3 C 29,6 C 33,1 C 33,1 C 3,3 C 45 % 51 % 1012,9 hPa 0,0 l/m 8,0 km/h (2 Bft) NO 45 7 min 16,6 C 33,1 C 21,4 km/h (4 Bft)
29.05.2018 13:23 29,8 C 19,3 C 29,6 C 33,1 C 33,1 C 3,3 C 45 % 51 % 1012,9 hPa 0,0 l/m 8,0 km/h (2 Bft) NO 45 1 min 16,6 C 33,1 C 10,5 km/h (2 Bft)
29.05.2018 13:24 29,8 C 19,3 C 29,6 C 33,1 C 33,1 C 3,3 C 45 % 51 % 1012,9 hPa 0,0 l/m 8,0 km/h (2 Bft) NO 45 1 min 16,6 C 33,1 C 10,5 km/h (2 Bft)
29.05.2018 13:25 29,9 C 19,3 C 29,5 C 33,1 C 33,1 C 3,2 C 46 % 51 % 1012,9 hPa 0,0 l/m 8,7 km/h (2 Bft) NO 45 0 min 17,0 C 33,1 C 6,8 km/h (2 Bft)
29.05.2018 13:26 29,9 C 19,3 C 29,5 C 33,1 C 33,1 C 3,2 C 46 % 51 % 1012,9 hPa 0,0 l/m 8,7 km/h (2 Bft) NO 45 0 min 17,0 C 33,1 C 6,8 km/h (2 Bft)
29.05.2018 13:28 29,9 C 19,3 C 29,5 C 33,1 C 33,1 C 3,2 C 46 % 51 % 1012,9 hPa 0,0 l/m 8,7 km/h (2 Bft) NO 45 0 min 17,0 C 33,1 C 6,8 km/h (2 Bft)
29.05.2018 13:39 30,1 C 19,4 C 29,5 C 33,6 C 33,6 C 3,5 C 47 % 52 % 1012,9 hPa 0,0 l/m 6,8 km/h (2 Bft) NW 315 11 min 17,5 C 33,6 C 8,0 km/h (2 Bft)
29.05.2018 13:40 30,3 C 19,4 C 29,5 C 33,9 C 33,9 C 3,6 C 45 % 51 % 1012,9 hPa 0,0 l/m 6,4 km/h (2 Bft) NW 315 1 min 17,0 C 33,9 C 8,4 km/h (2 Bft)
29.05.2018 13:41 30,3 C 19,4 C 29,5 C 33,9 C 33,9 C 3,6 C 45 % 51 % 1012,9 hPa 0,0 l/m 6,4 km/h (2 Bft) NW 315 1 min 17,0 C 33,9 C 8,4 km/h (2 Bft)
29.05.2018 13:42 30,3 C 19,4 C 29,5 C 33,9 C 33,9 C 3,6 C 45 % 51 % 1012,9 hPa 0,0 l/m 6,4 km/h (2 Bft) NW 315 1 min 17,0 C 33,9 C 8,4 km/h (2 Bft)
29.05.2018 13:43 30,3 C 19,4 C 29,5 C 33,9 C 33,9 C 3,6 C 45 % 51 % 1012,9 hPa 0,0 l/m 6,4 km/h (2 Bft) NW 315 1 min 17,0 C 33,9 C 8,4 km/h (2 Bft)
29.05.2018 13:44 30,4 C 19,4 C 29,4 C 34,1 C 34,1 C 3,7 C 46 % 52 % 1012,9 hPa 0,0 l/m 5,6 km/h (1 Bft) O-NO 67 1 min 17,5 C 34,1 C 6,6 km/h (2 Bft)
29.05.2018 13:49 30,3 C 19,4 C 30,1 C 33,9 C 33,9 C 3,6 C 44 % 51 % 1012,9 hPa 0,0 l/m 7,1 km/h (2 Bft) N-NO 22 5 min 16,7 C 33,9 C 7,1 km/h (2 Bft)
29.05.2018 13:54 30,3 C 19,4 C 30,8 C 33,9 C 33,9 C 3,6 C 45 % 49 % 1012,8 hPa 0,0 l/m 7,6 km/h (2 Bft) NO 45 5 min 17,0 C 33,9 C 13,5 km/h (3 Bft)
29.05.2018 13:59 30,1 C 19,5 C 30,9 C 33,3 C 33,3 C 3,2 C 44 % 48 % 1012,8 hPa 0,0 l/m 9,7 km/h (2 Bft) N-NO 22 0 min 16,5 C 33,3 C 11,4 km/h (2 Bft)
29.05.2018 14:04 30,1 C 19,5 C 31,4 C 33,2 C 33,2 C 3,1 C 45 % 47 % 1012,8 hPa 0,0 l/m 10,6 km/h (2 Bft) NO 45 0 min 16,8 C 33,2 C 13,2 km/h (3 Bft)
29.05.2018 14:09 30,3 C 19,5 C 31,7 C 33,4 C 33,4 C 3,1 C 45 % 46 % 1012,8 hPa 0,0 l/m 7,7 km/h (2 Bft) NO 45 0 min 17,0 C 33,4 C 5,1 km/h (1 Bft)
29.05.2018 14:14 30,4 C 19,5 C 31,3 C 33,8 C 33,8 C 3,4 C 45 % 47 % 1012,5 hPa 0,0 l/m 7,1 km/h (2 Bft) N-NO 22 5 min 17,1 C 33,8 C 9,7 km/h (2 Bft)
29.05.2018 14:19 30,2 C 19,5 C 30,6 C 33,8 C 33,8 C 3,6 C 44 % 48 % 1012,5 hPa 0,0 l/m 6,6 km/h (2 Bft) NW 315 5 min 16,6 C 33,8 C 0,0 km/h (0 Bft)
29.05.2018 14:24 30,3 C 19,5 C 30,3 C 33,6 C 33,6 C 3,3 C 46 % 48 % 1012,5 hPa 0,0 l/m 5,6 km/h (1 Bft) NO 45 5 min 17,4 C 33,6 C 17,2 km/h (3 Bft)
29.05.2018 14:29 30,3 C 19,6 C 30,4 C 33,9 C 33,9 C 3,6 C 46 % 50 % 1012,5 hPa 0,0 l/m 4,8 km/h (1 Bft) N-NO 22 5 min 17,4 C 33,9 C 11,4 km/h (2 Bft)
29.05.2018 14:34 30,3 C 19,6 C 30,5 C 34,1 C 34,1 C 3,8 C 46 % 50 % 1012,4 hPa 0,0 l/m 6,9 km/h (2 Bft) NO 45 5 min 17,4 C 34,1 C 11,4 km/h (2 Bft)
29.05.2018 14:39 30,5 C 19,6 C 30,5 C 34,5 C 34,5 C 4,0 C 46 % 50 % 1012,4 hPa 0,0 l/m 6,4 km/h (2 Bft) O-NO 67 5 min 17,5 C 34,5 C 14,8 km/h (3 Bft)
29.05.2018 14:44 30,4 C 19,6 C 30,4 C 34,3 C 34,3 C 3,9 C 45 % 50 % 1012,4 hPa 0,0 l/m 6,8 km/h (2 Bft) NO 45 5 min 17,1 C 34,3 C 15,8 km/h (3 Bft)
29.05.2018 14:49 30,4 C 19,6 C 30,6 C 34,5 C 34,5 C 4,1 C 46 % 50 % 1012,4 hPa 0,0 l/m 6,9 km/h (2 Bft) O-NO 67 5 min 17,5 C 34,5 C 9,8 km/h (2 Bft)
29.05.2018 14:54 30,5 C 19,6 C 30,5 C 34,4 C 34,4 C 3,9 C 45 % 49 % 1012,6 hPa 0,0 l/m 6,9 km/h (2 Bft) NO 45 5 min 17,2 C 34,4 C 11,9 km/h (2 Bft)
29.05.2018 14:59 30,2 C 19,6 C 30,5 C 33,7 C 33,7 C 3,5 C 48 % 51 % 1012,6 hPa 0,0 l/m 9,0 km/h (2 Bft) NO 45 5 min 17,9 C 33,7 C 4,2 km/h (1 Bft)
29.05.2018 15:04 30,3 C 19,6 C 30,5 C 33,8 C 33,8 C 3,5 C 47 % 50 % 1012,6 hPa 0,0 l/m 9,2 km/h (2 Bft) O-NO 67 5 min 17,7 C 33,8 C 7,4 km/h (2 Bft)
29.05.2018 15:09 30,2 C 19,6 C 30,4 C 33,8 C 33,8 C 3,6 C 46 % 49 % 1012,6 hPa 0,0 l/m 7,9 km/h (2 Bft) NO 45 5 min 17,3 C 33,8 C 11,9 km/h (2 Bft)
29.05.2018 15:14 30,1 C 19,6 C 30,0 C 33,3 C 33,3 C 3,2 C 46 % 49 % 1012,2 hPa 0,0 l/m 9,2 km/h (2 Bft) O-NO 67 0 min 17,2 C 33,3 C 15,9 km/h (3 Bft)
29.05.2018 15:19 29,9 C 19,7 C 29,9 C 32,3 C 32,3 C 2,4 C 46 % 51 % 1012,2 hPa 0,0 l/m 9,7 km/h (2 Bft) NO 45 0 min 17,0 C 32,3 C 8,4 km/h (2 Bft)
29.05.2018 15:24 30,0 C 19,8 C 30,0 C 33,0 C 33,0 C 3,0 C 47 % 51 % 1012,2 hPa 0,0 l/m 8,4 km/h (2 Bft) O-NO 67 0 min 17,4 C 33,0 C 8,9 km/h (2 Bft)
29.05.2018 15:29 30,2 C 19,8 C 30,4 C 33,9 C 33,9 C 3,7 C 49 % 52 % 1012,2 hPa 0,0 l/m 5,6 km/h (1 Bft) N-NO 22 5 min 18,3 C 33,9 C 6,6 km/h (2 Bft)
29.05.2018 15:34 30,4 C 19,8 C 30,5 C 34,3 C 34,3 C 3,9 C 47 % 50 % 1011,8 hPa 0,0 l/m 6,4 km/h (2 Bft) NO 45 5 min 17,8 C 34,3 C 16,7 km/h (3 Bft)
29.05.2018 15:39 30,2 C 19,8 C 30,3 C 33,6 C 33,6 C 3,4 C 47 % 50 % 1011,8 hPa 0,0 l/m 9,2 km/h (2 Bft) N-NO 22 5 min 17,6 C 33,6 C 6,4 km/h (2 Bft)
29.05.2018 15:44 30,3 C 19,8 C 30,3 C 33,7 C 33,7 C 3,4 C 47 % 50 % 1011,8 hPa 0,0 l/m 8,4 km/h (2 Bft) N-NO 22 5 min 17,7 C 33,7 C 3,5 km/h (1 Bft)
29.05.2018 15:49 30,3 C 19,8 C 30,5 C 34,0 C 34,0 C 3,7 C 48 % 51 % 1011,8 hPa 0,0 l/m 6,9 km/h (2 Bft) O-NO 67 5 min 18,0 C 34,0 C 3,4 km/h (1 Bft)
29.05.2018 15:54 30,4 C 19,9 C 30,6 C 34,1 C 34,1 C 3,7 C 47 % 51 % 1011,7 hPa 0,0 l/m 6,8 km/h (2 Bft) NO 45 5 min 17,8 C 34,1 C 12,2 km/h (2 Bft)
29.05.2018 15:59 30,2 C 19,9 C 30,6 C 34,0 C 34,0 C 3,8 C 47 % 50 % 1011,7 hPa 0,0 l/m 7,6 km/h (2 Bft) NO 45 5 min 17,6 C 34,0 C 13,4 km/h (3 Bft)
29.05.2018 16:04 30,2 C 19,9 C 30,5 C 33,8 C 33,8 C 3,6 C 48 % 51 % 1011,7 hPa 0,0 l/m 8,4 km/h (2 Bft) O-NO 67 5 min 17,9 C 33,8 C 11,1 km/h (2 Bft)
29.05.2018 16:09 30,1 C 19,9 C 30,4 C 33,3 C 33,3 C 3,2 C 48 % 51 % 1011,7 hPa 0,0 l/m 7,2 km/h (2 Bft) NO 45 0 min 17,9 C 33,3 C 7,4 km/h (2 Bft)
29.05.2018 16:14 30,1 C 19,9 C 30,3 C 33,3 C 33,3 C 3,2 C 48 % 51 % 1011,4 hPa 0,0 l/m 7,4 km/h (2 Bft) NW 315 0 min 17,9 C 33,3 C 8,4 km/h (2 Bft)
29.05.2018 16:19 30,0 C 19,9 C 30,4 C 32,7 C 32,7 C 2,7 C 49 % 51 % 1011,4 hPa 0,0 l/m 6,8 km/h (2 Bft) O-NO 67 0 min 18,1 C 32,7 C 6,3 km/h (2 Bft)
29.05.2018 16:24 30,1 C 19,9 C 30,7 C 33,3 C 33,3 C 3,2 C 48 % 51 % 1011,4 hPa 0,0 l/m 6,1 km/h (2 Bft) NO 45 0 min 17,9 C 33,3 C 4,7 km/h (1 Bft)
29.05.2018 16:29 30,3 C 20,0 C 30,6 C 33,6 C 33,6 C 3,3 C 47 % 50 % 1011,4 hPa 0,0 l/m 7,4 km/h (2 Bft) NO 45 5 min 17,7 C 33,6 C 7,2 km/h (2 Bft)
29.05.2018 16:34 30,1 C 20,0 C 30,1 C 32,9 C 32,9 C 2,8 C 47 % 50 % 1011,3 hPa 0,0 l/m 7,1 km/h (2 Bft) O-NO 67 0 min 17,5 C 32,9 C 8,7 km/h (2 Bft)
29.05.2018 16:39 29,9 C 20,0 C 29,9 C 32,1 C 32,1 C 2,2 C 48 % 51 % 1011,3 hPa 0,0 l/m 7,2 km/h (2 Bft) N-NO 22 0 min 17,7 C 32,1 C 15,4 km/h (3 Bft)
29.05.2018 16:44 29,8 C 20,0 C 29,9 C 32,1 C 32,1 C 2,3 C 48 % 51 % 1011,3 hPa 0,0 l/m 8,0 km/h (2 Bft) O-NO 67 0 min 17,6 C 32,1 C 8,4 km/h (2 Bft)
29.05.2018 16:49 29,7 C 20,0 C 29,5 C 31,5 C 31,5 C 1,8 C 49 % 53 % 1011,3 hPa 0,0 l/m 7,4 km/h (2 Bft) NO 45 0 min 17,8 C 31,5 C 5,3 km/h (1 Bft)
29.05.2018 16:54 29,7 C 20,0 C 29,5 C 31,3 C 31,3 C 1,6 C 50 % 54 % 1011,1 hPa 0,0 l/m 5,6 km/h (1 Bft) NO 45 0 min 18,1 C 31,3 C 7,6 km/h (2 Bft)
29.05.2018 16:59 29,9 C 20,0 C 29,9 C 32,6 C 32,6 C 2,7 C 50 % 53 % 1011,1 hPa 0,0 l/m 5,6 km/h (1 Bft) NO 45 0 min 18,3 C 32,6 C 6,3 km/h (2 Bft)
29.05.2018 17:04 30,1 C 20,0 C 30,0 C 33,2 C 33,2 C 3,1 C 50 % 53 % 1011,1 hPa 0,0 l/m 6,4 km/h (2 Bft) O-NO 67 0 min 18,5 C 33,2 C 7,1 km/h (2 Bft)
29.05.2018 17:09 30,1 C 20,1 C 30,1 C 33,4 C 33,4 C 3,3 C 49 % 52 % 1011,1 hPa 0,0 l/m 7,6 km/h (2 Bft) NO 45 5 min 18,2 C 33,4 C 12,2 km/h (2 Bft)
29.05.2018 17:14 30,0 C 20,1 C 30,1 C 33,0 C 33,0 C 3,0 C 48 % 51 % 1010,8 hPa 0,0 l/m 8,9 km/h (2 Bft) O-NO 67 0 min 17,8 C 33,0 C 6,8 km/h (2 Bft)
29.05.2018 17:19 29,8 C 20,1 C 30,1 C 32,8 C 32,8 C 3,0 C 49 % 51 % 1010,8 hPa 0,0 l/m 8,4 km/h (2 Bft) O-NO 67 0 min 17,9 C 32,8 C 6,1 km/h (2 Bft)
29.05.2018 17:24 29,9 C 20,1 C 29,9 C 32,8 C 32,8 C 2,9 C 49 % 53 % 1010,8 hPa 0,0 l/m 7,6 km/h (2 Bft) O-NO 67 0 min 18,0 C 32,8 C 11,3 km/h (2 Bft)
29.05.2018 17:29 29,5 C 20,1 C 29,6 C 31,9 C 31,9 C 2,4 C 50 % 54 % 1010,8 hPa 0,0 l/m 7,7 km/h (2 Bft) N-NO 22 0 min 18,0 C 31,9 C 8,0 km/h (2 Bft)
29.05.2018 17:34 29,5 C 20,1 C 29,3 C 31,3 C 31,3 C 1,8 C 51 % 54 % 1011,0 hPa 0,0 l/m 8,5 km/h (2 Bft) O-NO 67 0 min 18,3 C 31,3 C 8,0 km/h (2 Bft)
29.05.2018 17:39 29,0 C 20,1 C 28,9 C 30,3 C 30,3 C 1,3 C 51 % 54 % 1011,0 hPa 0,0 l/m 8,5 km/h (2 Bft) O-NO 67 0 min 17,8 C 30,3 C 8,7 km/h (2 Bft)
29.05.2018 17:44 28,7 C 20,1 C 28,3 C 29,1 C 29,1 C 0,4 C 49 % 52 % 1011,0 hPa 0,0 l/m 11,4 km/h (2 Bft) O-NO 67 0 min 16,9 C 29,1 C 16,6 km/h (3 Bft)
29.05.2018 17:49 27,4 C 20,1 C 27,1 C 27,3 C 27,0 C 0,0 C 50 % 54 % 1011,0 hPa 0,0 l/m 14,6 km/h (3 Bft) O 90 0 min 16,0 C 27,0 C 13,0 km/h (3 Bft)
29.05.2018 17:54 26,6 C 20,1 C 26,2 C 26,1 C 25,0 C 0,0 C 56 % 60 % 1010,7 hPa 0,0 l/m 13,8 km/h (3 Bft) O-NO 67 0 min 17,1 C 25,0 C 10,1 km/h (2 Bft)
29.05.2018 17:59 25,6 C 20,2 C 25,6 C 25,0 C 23,9 C 0,0 C 60 % 64 % 1010,7 hPa 0,0 l/m 8,2 km/h (2 Bft) O 90 0 min 17,2 C 23,9 C 6,3 km/h (2 Bft)
29.05.2018 18:04 25,2 C 20,2 C 25,5 C 24,7 C 23,7 C 0,0 C 63 % 66 % 1010,7 hPa 0,0 l/m 4,3 km/h (1 Bft) S 180 0 min 17,6 C 23,7 C 2,9 km/h (1 Bft)
29.05.2018 18:09 25,0 C 20,2 C 25,1 C 24,5 C 23,4 C 0,0 C 64 % 68 % 1010,7 hPa 0,0 l/m 2,7 km/h (1 Bft) O-NO 67 0 min 17,7 C 23,4 C 3,7 km/h (1 Bft)
29.05.2018 18:14 24,9 C 20,2 C 24,9 C 24,5 C 23,6 C 0,0 C 66 % 69 % 1010,9 hPa 0,0 l/m 2,6 km/h (1 Bft) O-NO 67 0 min 18,1 C 23,6 C 2,4 km/h (1 Bft)
29.05.2018 18:19 24,7 C 20,2 C 24,7 C 24,4 C 23,9 C 0,0 C 66 % 69 % 1010,9 hPa 0,0 l/m 2,6 km/h (1 Bft) NO 45 0 min 17,9 C 23,9 C 3,1 km/h (1 Bft)
29.05.2018 18:24 24,6 C 20,2 C 24,7 C 24,4 C 24,1 C 0,0 C 66 % 68 % 1010,9 hPa 0,0 l/m 2,1 km/h (1 Bft) O-NO 67 0 min 17,8 C 24,1 C 1,6 km/h (1 Bft)
29.05.2018 18:29 24,5 C 20,3 C 24,7 C 24,4 C 24,3 C 0,0 C 65 % 68 % 1010,9 hPa 0,0 l/m 1,0 km/h (0 Bft) O-SO 112 0 min 17,5 C 24,3 C 0,0 km/h (0 Bft)
29.05.2018 18:34 24,4 C 20,3 C 24,7 C 24,4 C 24,4 C 0,0 C 65 % 68 % 1010,8 hPa 0,0 l/m 0,3 km/h (0 Bft) O 90 0 min 17,4 C 24,4 C 0,0 km/h (0 Bft)
29.05.2018 18:39 24,5 C 20,3 C 24,5 C 24,5 C 24,5 C 0,0 C 66 % 70 % 1010,8 hPa 0,0 l/m 0,0 km/h (0 Bft) N-NO 22 0 min 17,7 C 24,5 C 0,0 km/h (0 Bft)
29.05.2018 18:44 24,5 C 20,3 C 24,3 C 24,6 C 24,6 C 0,1 C 67 % 70 % 1010,8 hPa 0,0 l/m 0,2 km/h (0 Bft) N-NW 337 0 min 18,0 C 24,6 C 0,0 km/h (0 Bft)
29.05.2018 18:49 24,5 C 20,3 C 24,3 C 24,7 C 24,7 C 0,2 C 68 % 71 % 1010,8 hPa 0,0 l/m 0,3 km/h (0 Bft) NO 45 0 min 18,2 C 24,7 C 2,7 km/h (1 Bft)
29.05.2018 18:54 24,4 C 20,3 C 24,3 C 24,7 C 24,7 C 0,3 C 68 % 72 % 1010,6 hPa 0,0 l/m 1,1 km/h (1 Bft) N-NO 22 0 min 18,1 C 24,7 C 2,9 km/h (1 Bft)
29.05.2018 18:59 24,4 C 20,3 C 24,3 C 24,8 C 24,8 C 0,4 C 68 % 72 % 1010,6 hPa 0,0 l/m 2,7 km/h (1 Bft) O-NO 67 0 min 18,1 C 24,8 C 2,7 km/h (1 Bft)
29.05.2018 19:04 24,4 C 20,3 C 24,4 C 24,9 C 24,9 C 0,5 C 68 % 73 % 1010,6 hPa 0,0 l/m 2,3 km/h (1 Bft) O-NO 67 0 min 18,1 C 24,9 C 3,1 km/h (1 Bft)
29.05.2018 19:09 24,5 C 20,3 C 24,4 C 25,0 C 25,0 C 0,5 C 69 % 73 % 1010,6 hPa 0,0 l/m 2,3 km/h (1 Bft) O-NO 67 0 min 18,4 C 25,0 C 2,7 km/h (1 Bft)
29.05.2018 19:14 24,5 C 20,4 C 24,5 C 25,0 C 25,0 C 0,5 C 70 % 73 % 1010,9 hPa 0,0 l/m 2,3 km/h (1 Bft) O-NO 67 0 min 18,7 C 25,0 C 0,0 km/h (0 Bft)
29.05.2018 19:19 24,6 C 20,3 C 24,4 C 25,1 C 25,1 C 0,5 C 70 % 73 % 1010,9 hPa 0,0 l/m 2,3 km/h (1 Bft) O 90 0 min 18,8 C 25,1 C 3,9 km/h (1 Bft)
29.05.2018 19:24 24,7 C 20,4 C 24,5 C 25,2 C 25,2 C 0,5 C 70 % 74 % 1010,9 hPa 0,0 l/m 2,4 km/h (1 Bft) O-NO 67 0 min 18,8 C 25,2 C 2,1 km/h (1 Bft)
29.05.2018 19:29 24,7 C 20,4 C 24,5 C 25,2 C 25,2 C 0,5 C 70 % 74 % 1010,9 hPa 0,0 l/m 2,4 km/h (1 Bft) NO 45 0 min 18,8 C 25,2 C 0,0 km/h (0 Bft)
29.05.2018 19:34 24,7 C 20,4 C 24,4 C 25,2 C 25,2 C 0,5 C 71 % 75 % 1010,4 hPa 0,0 l/m 1,3 km/h (1 Bft) W-SW 247 0 min 19,1 C 25,2 C 0,0 km/h (0 Bft)
29.05.2018 19:39 24,9 C 20,4 C 24,2 C 25,0 C 25,0 C 0,1 C 72 % 76 % 1010,4 hPa 0,0 l/m 0,0 km/h (0 Bft) W 270 0 min 19,5 C 25,0 C 0,0 km/h (0 Bft)
29.05.2018 19:44 24,9 C 20,4 C 24,1 C 24,9 C 24,9 C 0,0 C 73 % 77 % 1010,4 hPa 0,0 l/m 0,0 km/h (0 Bft) W-NW 292 0 min 19,7 C 24,9 C 0,0 km/h (0 Bft)
29.05.2018 19:49 24,8 C 20,4 C 24,0 C 24,7 C 24,6 C 0,0 C 73 % 78 % 1010,4 hPa 0,0 l/m 0,0 km/h (0 Bft) N 360 0 min 19,6 C 24,6 C 0,0 km/h (0 Bft)
29.05.2018 19:54 24,6 C 20,4 C 23,9 C 24,5 C 24,3 C 0,0 C 73 % 78 % 1010,6 hPa 0,0 l/m 0,0 km/h (0 Bft) O 90 0 min 19,4 C 24,3 C 0,0 km/h (0 Bft)
29.05.2018 19:59 24,5 C 20,4 C 23,7 C 24,4 C 24,1 C 0,0 C 74 % 79 % 1010,6 hPa 0,0 l/m 0,0 km/h (0 Bft) O-NO 67 0 min 19,6 C 24,1 C 1,6 km/h (1 Bft)
29.05.2018 20:04 24,2 C 20,4 C 23,7 C 24,1 C 23,9 C 0,0 C 75 % 79 % 1010,6 hPa 0,0 l/m 0,6 km/h (0 Bft) NO 45 0 min 19,5 C 23,9 C 3,1 km/h (1 Bft)
29.05.2018 20:09 24,0 C 20,4 C 23,5 C 23,9 C 23,6 C 0,0 C 76 % 80 % 1010,6 hPa 0,0 l/m 0,8 km/h (0 Bft) NO 45 0 min 19,5 C 23,6 C 0,0 km/h (0 Bft)
29.05.2018 20:14 23,9 C 20,4 C 23,5 C 23,8 C 23,5 C 0,0 C 76 % 80 % 1010,9 hPa 0,0 l/m 0,3 km/h (0 Bft) NO 45 0 min 19,4 C 23,5 C 0,0 km/h (0 Bft)
29.05.2018 20:19 23,7 C 20,4 C 23,3 C 23,6 C 23,4 C 0,0 C 76 % 80 % 1010,9 hPa 0,0 l/m 0,3 km/h (0 Bft) NO 45 0 min 19,2 C 23,4 C 1,6 km/h (1 Bft)
29.05.2018 20:24 23,7 C 20,4 C 23,3 C 23,6 C 23,3 C 0,0 C 76 % 80 % 1010,9 hPa 0,0 l/m 0,8 km/h (0 Bft) O-NO 67 0 min 19,2 C 23,3 C 2,4 km/h (1 Bft)
29.05.2018 20:29 23,7 C 20,4 C 23,2 C 23,5 C 23,2 C 0,0 C 76 % 80 % 1010,9 hPa 0,0 l/m 1,0 km/h (0 Bft) NO 45 0 min 19,2 C 23,2 C 0,0 km/h (0 Bft)
29.05.2018 20:34 23,6 C 20,4 C 23,1 C 23,4 C 23,1 C 0,0 C 76 % 81 % 1011,0 hPa 0,0 l/m 0,5 km/h (0 Bft) S 180 0 min 19,1 C 23,1 C 0,0 km/h (0 Bft)
29.05.2018 20:39 23,5 C 20,4 C 23,0 C 23,3 C 22,8 C 0,0 C 77 % 81 % 1011,0 hPa 0,0 l/m 0,0 km/h (0 Bft) SW 225 0 min 19,2 C 22,8 C 0,0 km/h (0 Bft)
29.05.2018 20:44 23,5 C 20,4 C 22,9 C 23,2 C 22,6 C 0,0 C 77 % 81 % 1011,0 hPa 0,0 l/m 0,0 km/h (0 Bft) SW 225 0 min 19,2 C 22,6 C 0,0 km/h (0 Bft)
29.05.2018 20:49 23,4 C 20,4 C 22,6 C 23,0 C 22,2 C 0,0 C 78 % 82 % 1011,0 hPa 0,0 l/m 0,0 km/h (0 Bft) W-SW 247 0 min 19,3 C 22,2 C 0,0 km/h (0 Bft)
29.05.2018 20:54 23,2 C 20,4 C 22,5 C 22,8 C 22,0 C 0,0 C 78 % 82 % 1011,1 hPa 0,0 l/m 0,0 km/h (0 Bft) N-NO 22 0 min 19,1 C 22,0 C 0,0 km/h (0 Bft)
29.05.2018 20:59 23,1 C 20,4 C 22,4 C 22,6 C 21,7 C 0,0 C 78 % 83 % 1011,1 hPa 0,0 l/m 0,0 km/h (0 Bft) NO 45 0 min 19,0 C 21,7 C 0,0 km/h (0 Bft)
29.05.2018 21:04 23,1 C 20,4 C 22,3 C 22,6 C 21,6 C 0,0 C 78 % 83 % 1011,1 hPa 0,0 l/m 0,0 km/h (0 Bft) NO 45 0 min 19,0 C 21,6 C 0,0 km/h (0 Bft)
29.05.2018 21:09 22,8 C 20,4 C 22,0 C 22,3 C 21,4 C 0,0 C 79 % 84 % 1011,1 hPa 0,0 l/m 0,0 km/h (0 Bft) N-NW 337 0 min 19,0 C 21,4 C 0,0 km/h (0 Bft)
29.05.2018 21:14 22,6 C 20,4 C 21,9 C 22,2 C 21,3 C 0,0 C 78 % 84 % 1011,2 hPa 0,0 l/m 0,0 km/h (0 Bft) N 360 0 min 18,6 C 21,3 C 0,0 km/h (0 Bft)
29.05.2018 21:19 22,4 C 20,4 C 21,9 C 22,0 C 21,1 C 0,0 C 78 % 83 % 1011,2 hPa 0,0 l/m 0,0 km/h (0 Bft) O-NO 67 0 min 18,4 C 21,1 C 0,0 km/h (0 Bft)
29.05.2018 21:24 22,3 C 20,4 C 21,7 C 21,9 C 21,0 C 0,0 C 78 % 83 % 1011,2 hPa 0,0 l/m 0,0 km/h (0 Bft) NO 45 0 min 18,3 C 21,0 C 0,0 km/h (0 Bft)
29.05.2018 21:29 22,2 C 20,5 C 21,6 C 21,7 C 20,8 C 0,0 C 79 % 84 % 1011,2 hPa 0,0 l/m 0,0 km/h (0 Bft) SW 225 0 min 18,4 C 20,8 C 0,0 km/h (0 Bft)
29.05.2018 21:34 22,3 C 20,5 C 21,6 C 21,7 C 20,6 C 0,0 C 80 % 85 % 1011,3 hPa 0,0 l/m 0,0 km/h (0 Bft) SW 225 0 min 18,7 C 20,6 C 0,0 km/h (0 Bft)
29.05.2018 21:39 22,1 C 20,5 C 21,5 C 21,5 C 20,4 C 0,0 C 80 % 85 % 1011,3 hPa 0,0 l/m 0,0 km/h (0 Bft) NW 315 0 min 18,5 C 20,4 C 0,0 km/h (0 Bft)
29.05.2018 21:44 22,0 C 20,5 C 21,4 C 21,4 C 20,3 C 0,0 C 80 % 85 % 1011,3 hPa 0,0 l/m 0,0 km/h (0 Bft) NW 315 0 min 18,4 C 20,3 C 0,0 km/h (0 Bft)
29.05.2018 21:49 21,9 C 20,5 C 21,2 C 21,3 C 20,2 C 0,0 C 80 % 85 % 1011,3 hPa 0,0 l/m 0,0 km/h (0 Bft) NW 315 0 min 18,3 C 20,2 C 0,0 km/h (0 Bft)
29.05.2018 21:54 21,6 C 20,4 C 21,1 C 21,1 C 20,1 C 0,0 C 80 % 85 % 1011,3 hPa 0,0 l/m 0,0 km/h (0 Bft) NW 315 0 min 18,0 C 20,1 C 0,0 km/h (0 Bft)
29.05.2018 21:59 21,5 C 20,4 C 21,1 C 21,0 C 20,0 C 0,0 C 81 % 85 % 1011,3 hPa 0,0 l/m 0,0 km/h (0 Bft) SW 225 0 min 18,1 C 20,0 C 0,0 km/h (0 Bft)
29.05.2018 22:04 21,4 C 20,5 C 21,0 C 20,9 C 19,9 C 0,0 C 81 % 86 % 1011,3 hPa 0,0 l/m 0,0 km/h (0 Bft) NO 45 0 min 18,0 C 19,9 C 0,0 km/h (0 Bft)
29.05.2018 22:09 21,2 C 20,4 C 20,9 C 20,8 C 20,0 C 0,0 C 81 % 85 % 1011,3 hPa 0,0 l/m 0,0 km/h (0 Bft) N-NO 22 0 min 17,8 C 20,0 C 0,0 km/h (0 Bft)
29.05.2018 22:14 21,2 C 20,4 C 20,8 C 20,8 C 20,0 C 0,0 C 81 % 86 % 1011,5 hPa 0,0 l/m 0,0 km/h (0 Bft) NO 45 0 min 17,8 C 20,0 C 0,0 km/h (0 Bft)
29.05.2018 22:19 21,1 C 20,4 C 20,7 C 20,7 C 19,9 C 0,0 C 82 % 86 % 1011,5 hPa 0,0 l/m 0,0 km/h (0 Bft) W 270 0 min 17,9 C 19,9 C 0,0 km/h (0 Bft)
29.05.2018 22:24 21,1 C 20,4 C 20,7 C 20,7 C 19,9 C 0,0 C 82 % 86 % 1011,5 hPa 0,0 l/m 0,0 km/h (0 Bft) N-NO 22 0 min 17,9 C 19,9 C 0,0 km/h (0 Bft)
29.05.2018 22:29 20,8 C 20,4 C 20,5 C 20,5 C 19,8 C 0,0 C 82 % 86 % 1011,5 hPa 0,0 l/m 0,0 km/h (0 Bft) NO 45 0 min 17,6 C 19,8 C 0,0 km/h (0 Bft)
29.05.2018 22:34 20,8 C 20,4 C 20,4 C 20,5 C 19,9 C 0,0 C 81 % 86 % 1011,4 hPa 0,0 l/m 0,0 km/h (0 Bft) N 360 0 min 17,4 C 19,9 C 0,0 km/h (0 Bft)
29.05.2018 22:39 20,6 C 20,6 C 20,5 C 20,3 C 19,7 C 0,0 C 82 % 86 % 1011,4 hPa 0,0 l/m 0,0 km/h (0 Bft) S-SO 157 0 min 17,4 C 19,7 C 1,8 km/h (1 Bft)
29.05.2018 22:44 20,5 C 20,6 C 20,3 C 20,1 C 19,4 C 0,0 C 82 % 86 % 1011,4 hPa 0,0 l/m 0,0 km/h (0 Bft) NO 45 0 min 17,3 C 19,4 C 0,0 km/h (0 Bft)
29.05.2018 22:49 20,4 C 20,5 C 20,2 C 20,1 C 19,4 C 0,0 C 82 % 87 % 1011,4 hPa 0,0 l/m 0,0 km/h (0 Bft) O 90 0 min 17,2 C 19,4 C 0,0 km/h (0 Bft)
29.05.2018 22:54 20,4 C 20,5 C 20,2 C 20,0 C 19,3 C 0,0 C 82 % 87 % 1011,6 hPa 0,0 l/m 0,0 km/h (0 Bft) W-NW 292 0 min 17,2 C 19,3 C 0,0 km/h (0 Bft)
29.05.2018 22:59 20,2 C 20,4 C 20,1 C 20,0 C 19,5 C 0,0 C 82 % 86 % 1011,6 hPa 0,0 l/m 0,2 km/h (0 Bft) S 180 0 min 17,0 C 19,5 C 0,0 km/h (0 Bft)
29.05.2018 23:04 20,3 C 20,3 C 20,1 C 20,1 C 19,7 C 0,0 C 82 % 86 % 1011,6 hPa 0,0 l/m 0,6 km/h (0 Bft) N-NW 337 0 min 17,1 C 19,7 C 0,0 km/h (0 Bft)
29.05.2018 23:09 20,4 C 20,3 C 20,2 C 20,3 C 20,2 C 0,0 C 81 % 84 % 1011,6 hPa 0,0 l/m 1,0 km/h (0 Bft) O 90 0 min 17,0 C 20,2 C 2,7 km/h (1 Bft)
29.05.2018 23:14 20,7 C 20,3 C 20,3 C 20,6 C 20,4 C 0,0 C 80 % 84 % 1011,4 hPa 0,0 l/m 0,6 km/h (0 Bft) O-NO 67 0 min 17,1 C 20,4 C 0,0 km/h (0 Bft)
29.05.2018 23:19 20,6 C 20,3 C 20,4 C 20,5 C 20,4 C 0,0 C 79 % 83 % 1011,4 hPa 0,0 l/m 0,2 km/h (0 Bft) O-NO 67 0 min 16,8 C 20,4 C 0,0 km/h (0 Bft)
29.05.2018 23:24 20,8 C 20,3 C 20,4 C 20,7 C 20,4 C 0,0 C 79 % 82 % 1011,4 hPa 0,0 l/m 0,2 km/h (0 Bft) N-NO 22 0 min 17,0 C 20,4 C 0,0 km/h (0 Bft)
29.05.2018 23:29 20,9 C 20,3 C 20,5 C 20,7 C 20,3 C 0,0 C 78 % 82 % 1011,4 hPa 0,0 l/m 0,2 km/h (0 Bft) W 270 0 min 16,9 C 20,3 C 0,0 km/h (0 Bft)
29.05.2018 23:34 20,9 C 20,3 C 20,2 C 20,7 C 20,2 C 0,0 C 78 % 82 % 1011,4 hPa 0,0 l/m 0,5 km/h (0 Bft) S 180 0 min 16,9 C 20,2 C 0,0 km/h (0 Bft)
29.05.2018 23:39 20,9 C 20,3 C 20,3 C 20,6 C 20,0 C 0,0 C 78 % 82 % 1011,4 hPa 0,0 l/m 0,5 km/h (0 Bft) N-NO 22 0 min 16,9 C 20,0 C 0,0 km/h (0 Bft)
29.05.2018 23:44 20,7 C 20,3 C 20,0 C 20,4 C 19,9 C 0,0 C 78 % 83 % 1011,4 hPa 0,0 l/m 0,2 km/h (0 Bft) O-NO 67 0 min 16,7 C 19,9 C 0,0 km/h (0 Bft)
29.05.2018 23:49 20,7 C 20,3 C 19,9 C 20,4 C 19,7 C 0,0 C 78 % 83 % 1011,4 hPa 0,0 l/m 0,2 km/h (0 Bft) NW 315 0 min 16,7 C 19,7 C 0,0 km/h (0 Bft)
29.05.2018 23:54 20,5 C 20,3 C 19,8 C 20,2 C 19,6 C 0,0 C 77 % 83 % 1011,2 hPa 0,0 l/m 0,0 km/h (0 Bft) W 270 0 min 16,3 C 19,6 C 0,0 km/h (0 Bft)
29.05.2018 23:59 20,5 C 20,3 C 19,7 C 20,0 C 19,1 C 0,0 C 78 % 84 % 1011,2 hPa 0,0 l/m 0,3 km/h (0 Bft) O-NO 67 0 min 16,5 C 19,1 C 3,2 km/h (1 Bft)
_ Min-Zeit 03:15 07:10 05:30 02:45 02:40 00:00 13:49 14:09 19:34 - 00:00 - - - 06:00 02:40 00:00
Minimum _ 16,4 C 18,8 C 16,7 C 16,4 C 15,7 C 0,0 C 44 % 46 % 1010,4 hPa - 0,0 km/h (0 Bft) - - - 13,6 C 15,7 C 0,0 km/h (0 Bft)
_ Max-Zeit 14:39 22:39 14:09 14:39 14:39 07:55 03:20 02:45 00:15 00:00 17:49 - - 13:39 19:44 14:39 13:22
Maximum _ 30,5 C 20,6 C 31,7 C 34,5 C 34,5 C 8,8 C 85 % 88 % 1017,0 hPa 0,0 l/m 14,6 km/h
O (3 Bft)
- - 11 min 19,7 C 34,5 C 21,4 km/h
NO (4 Bft)
Durchschnitt _ 23,4 C 19,6 C 23,2 C 25,1 C 24,8 C 1,8 C 68 % 73 % 1013,3 hPa #0,0 l/m 3,3 km/h (1 Bft) O-NO - #7:40 h 16,8 C 24,8 C 4,2 km/h (1 Bft)
2018 www.wetterstation-wechselburg.de